Temp
58 58 58 58 58 58 59 59 59 59 59 60 60 60 60 60 59 62 75 84 77 72 77 86 87 81 81 81 74 68 84 87 85 78 77 77 76 79 77 79 75 73 72 71 72 67 64 84 82 73 75 82 81 80
57 58 58 58 58 58 58 58 58 58 59 59 60 60 60 59 59 59 73 84 84 75 79 86 90 90 88 86 82 88 84 83 85 80 81 81 76 80 75 69 83 72 77 71 72 70 80 83 81 85 86 80 80 80
56 57 57 57 57 58 58 58 58 58 59 59 59 60 59 59 59 59 68 77 80 78 81 86 86 93 98 96 98 81 87 89 86 88 81 80 73 80 72 75 78 80 85 76 76 78 80 82 84 85 84 82 81 81
55 56 56 57 57 57 57 57 58 58 58 59 59 59 59 59 59 58 68 77 79 76 72 84 97 89 96 97 93 93 90 91 91 88 80 79 75 84 77 79 77 80 81 77 77 79 81 83 83 83 81 82 79 78
54 55 55 56 56 57 57 57 57 57 58 58 59 59 59 59 58 62 72 79 84 73 68 75 90 94 95 94 90 91 90 88 85 80 78 76 82 81 82 80 77 85 80 75 74 79 78 79 84 84 79 78 78 76
54 54 54 55 56 56 57 57 57 57 57 58 58 59 58 58 57 69 74 82 79 79 70 72 90 87 91 90 88 86 88 86 84 81 80 84 88 81 73 72 82 87 87 86 80 84 83 83 85 84 80 79 78 77
54 54 54 55 55 56 56 57 57 57 57 58 58 58 57 57 63 68 67 70 59 71 70 71 77 86 88 87 86 85 88 84 84 81 79 81 82 80 74 69 82 84 84 83 84 84 78 81 79 82 81 79 73 78
54 54 54 54 55 56 56 57 57 57 58 58 57 57 57 56 57 65 75 60 64 72 75 68 73 78 87 79 77 87 82 83 81 79 82 79 79 79 69 78 82 82 82 81 81 84 83 84 82 80 80 77 74 74
54 54 54 55 55 55 56 56 57 57 57 57 57 57 63 66 71 72 62 59 74 70 65 72 69 69 84 79 82 82 83 75 84 76 77 79 75 69 75 76 79 79 78 79 81 83 82 81 78 77 77 76 74 74
55 54 54 54 54 55 55 56 56 56 56 56 61 69 68 73 61 64 65 64 67 71 70 67 77 73 81 79 77 77 79 74 70 75 81 74 72 79 79 80 79 80 81 81 77 75 77 77 77 76 75 76 76 76
54 54 54 54 54 54 55 55 55 55 56 66 67 65 75 61 75 73 67 67 69 66 72 73 74 73 84 74 74 79 69 75 67 71 71 71 69 72 78 78 79 80 81 82 82 82 81 79 78 77 76 76 76 76
54 54 54 54 54 54 54 54 55 61 64 59 60 67 77 73 69 62 64 69 67 64 73 73 75 78 79 82 75 72 71 73 64 77 69 66 67 74 77 78 79 79 81 82 83 81 81 81 80 79 78 76 75 76
54 54 54 54 54 54 54 54 54 55 57 70 66 65 66 66 48 57 57 64 66 74 72 74 71 76 76 77 74 72 63 62 74 66 66 65 70 74 75 77 79 81 81 82 81 82 81 79 79 77 76 77 77 75
53 54 54 54 54 54 54 54 54 56 59 59 57 43 59 59 64 66 66 68 73 71 75 74 71 71 75 71 71 61 66 68 61 59 61 67 70 72 75 77 77 78 79 79 79 80 78 77 76 76 76 76 75 73
53 53 54 54 54 54 54 53 54 60 64 59 60 49 61 70 72 73 70 73 76 76 75 71 66 72 68 64 67 65 60 58 65 63 64 68 71 72 73 75 77 77 78 78 79 77 77 77 75 74 75 76 75 75
53 53 56 56 55 54 53 53 56 64 64 63 62 61 68 68 65 70 73 72 77 76 75 70 61 61 61 62 61 61 61 61 63 67 71 70 71 72 72 74 75 76 77 78 77 75 72 73 75 74 73 74 74 74
51 54 55 55 55 53 52 52 54 57 55 58 63 70 68 67 68 68 72 72 76 72 60 59 60 61 70 63 61 66 62 67 72 74 73 71 70 71 73 74 74 74 71 74 76 74 71 71 72 70 71 73 74 74
55 56 55 54 54 52 51 52 50 48 54 63 61 64 67 64 67 67 69 75 69 67 64 58 64 59 61 58 60 68 72 69 73 75 71 73 74 74 75 73 74 74 69 61 60 62 72 72 71 73 68 71 73 73
53 52 52 54 54 51 48 49 49 48 59 65 68 71 69 67 68 71 73 68 71 70 71 70 62 62 62 68 68 64 66 69 68 72 75 75 75 75 74 74 74 72 72 68 67 73 74 65 68 74 73 69 61 68
52 52 52 52 53 49 51 47 55 56 57 61 68 65 61 64 68 70 69 71 68 65 64 64 66 70 68 66 71 70 71 74 73 71 72 75 77 74 73 73 71 72 71 63 60 55 70 72 71 66 59 64 59 62
51 52 53 53 51 51 53 59 56 61 61 57 62 62 61 65 66 67 67 70 65 64 65 71 72 76 72 73 74 73 72 73 70 71 69 70 73 74 74 75 76 75 73 70 65 65 64 70 64 67 72 74 75 76
52 54 52 52 49 51 50 58 59 63 61 64 60 64 60 57 59 63 70 65 65 68 69 70 68 69 69 68 70 71 71 70 71 70 61 66 70 72 73 75 76 75 75 72 72 72 65 65 67 67 58 58 63 74
54 55 52 50 47 47 48 63 56 59 54 56 60 58 57 57 60 68 63 66 64 71 72 70 68 69 68 69 70 70 71 70 70 71 72 72 73 70 72 74 77 74 74 72 76 70 73 65 56 65 63 64 68 71
51 49 48 48 46 46 59 55 62 59 59 56 55 54 57 59 63 60 56 60 65 70 70 67 70 68 68 66 68 70 70 67 71 72 69 70 72 74 68 75 78 79 79 79 78 77 76 75 63 72 65 59 61 63
43 46 46 39 50 50 50 52 55 57 53 56 55 55 56 61 55 55 57 59 66 65 67 68 68 69 68 67 68 69 66 64 69 63 71 72 75 70 74 72 78 79 82 77 77 76 76 76 74 74 73 66 69 64
38 47 41 46 50 50 50 48 49 50 55 55 57 60 63 57 54 51 55 58 62 66 69 69 67 67 56 66 67 68 73 70 73 69 73 77 69 69 72 72 71 73 72 71 73 75 76 77 75 72 73 71 54 67
42 46 49 53 54 56 55 55 56 57 54 53 57 58 57 53 51 55 57 69 69 71 73 72 65 66 66 64 67 74 70 70 70 74 78 79 80 73 63 65 66 66 75 77 77 73 69 75 75 69 73 74 73 65
53 53 47 54 54 57 51 52 52 52 55 63 63 53 50 51 48 56 65 66 70 70 64 62 61 59 65 69 75 75 76 77 66 69 73 73 72 73 65 61 68 58 73 73 70 71 65 68 69 73 72 71 70 68
52 55 55 51 52 52 50 49 53 59 64 62 53 51 53 55 59 57 59 64 59 69 68 68 68 70 67 68 73 69 64 61 60 62 58 57 63 63 60 59 60 73 75 70 50 57 65 67 68 67 72 71 74 76
55 61 53 54 51 50 57 62 61 67 70 67 67 58 56 58 61 67 67 66 64 64 66 62 57 59 63 64 63 68 73 73 67 61 57 61 63 64 63 65 69 72 72 70 67 63 54 62 67 73 72 74 75 76
61 60 57 57 56 62 65 69 72 71 70 67 66 61 55 58 64 64 63 64 63 64 61 61 63 62 61 56 62 67 65 68 67 66 64 66 66 65 65 68 71 73 72 70 71 65 62 61 64 63 61 61 66 71
58 57 57 54 57 65 70 64 63 59 58 57 57 59 55 55 50 52 58 60 58 52 51 54 59 57 60 67 70 71 54 59 59 60 58 59 59 58 60 60 62 65 66 68 66 63 61 63 58 58 56 55 56 58
61 61 59 59 58 58 62 61 60 53 54 52 52 52 51 49 46 52 58 56 55 55 65 66 68 70 68 67 67 67 61 68 55 44 44 42 39 43 54 52 54 57 61 60 58 58 56 53 53 54 53 50 51 52
MSLP
1021.24 1021.17 1021.10 1020.94 1020.86 1020.84 1020.71 1020.54 1020.41 1020.22 1019.92 1019.60 1019.31 1018.97 1018.60 1018.12 1017.61 1017.03 1013.86 1012.37 1012.11 1010.49 1008.28 1006.62 1005.80 1005.23 1004.92 1004.39 1003.71 1004.33 1002.66 1001.82 1001.57 1001.60 1001.75 1001.39 1001.23 1001.04 1001.01 1001.47 1001.80 1002.00 1002.17 1002.64 1002.78 1002.91 1003.05 1003.48 1004.10 1004.38 1005.72 1006.23 1007.07 1007.97
1021.25 1021.12 1021.05 1020.96 1020.83 1020.71 1020.55 1020.37 1020.22 1020.03 1019.79 1019.50 1019.22 1018.89 1018.54 1018.19 1017.76 1017.29 1014.22 1012.42 1012.08 1011.40 1008.66 1007.94 1006.76 1006.17 1006.02 1005.69 1005.04 1003.65 1003.28 1002.93 1002.73 1002.51 1002.46 1002.41 1002.16 1001.89 1002.29 1002.12 1002.20 1002.59 1003.04 1003.72 1003.90 1004.49 1004.70 1004.85 1005.13 1005.71 1006.11 1007.04 1008.03 1008.76
1021.24 1021.05 1020.96 1020.87 1020.75 1020.60 1020.43 1020.17 1020.03 1019.86 1019.62 1019.34 1019.09 1018.82 1018.51 1018.18 1017.89 1017.76 1015.79 1013.66 1012.07 1010.15 1008.17 1006.48 1005.58 1005.25 1005.40 1005.14 1004.98 1004.78 1003.93 1003.91 1004.06 1004.38 1004.45 1003.72 1003.34 1003.24 1002.78 1002.22 1002.41 1002.84 1003.20 1003.88 1004.15 1004.91 1005.16 1005.52 1006.18 1006.67 1007.21 1007.62 1008.81 1009.66
1021.32 1021.06 1020.89 1020.78 1020.61 1020.45 1020.22 1019.95 1019.83 1019.67 1019.42 1019.15 1018.90 1018.65 1018.38 1018.04 1017.74 1017.57 1015.85 1014.02 1012.69 1011.29 1008.64 1004.97 1005.01 1005.43 1005.49 1005.21 1005.63 1005.52 1005.15 1005.21 1005.04 1005.18 1005.08 1004.49 1004.10 1003.72 1003.48 1003.18 1003.40 1003.56 1003.84 1004.00 1004.23 1004.79 1005.44 1005.75 1006.58 1007.25 1008.18 1008.80 1009.73 1010.81
1021.29 1021.07 1020.91 1020.69 1020.47 1020.27 1020.03 1019.77 1019.58 1019.37 1019.12 1018.88 1018.65 1018.42 1018.18 1017.87 1017.49 1016.79 1015.15 1013.59 1012.69 1012.64 1010.04 1007.40 1005.53 1005.00 1005.47 1005.32 1005.83 1005.71 1005.47 1005.29 1005.14 1005.20 1005.02 1004.63 1004.25 1004.09 1003.93 1003.99 1003.46 1003.34 1003.62 1004.00 1004.23 1005.05 1005.53 1006.16 1006.52 1007.48 1008.57 1009.61 1010.45 1011.17
1021.18 1020.98 1020.80 1020.57 1020.28 1020.07 1019.84 1019.58 1019.32 1019.07 1018.82 1018.60 1018.40 1018.21 1018.01 1017.72 1017.30 1015.86 1013.17 1012.74 1013.64 1013.06 1011.55 1007.83 1005.29 1005.46 1005.36 1005.60 1005.93 1005.90 1005.49 1005.43 1005.50 1005.14 1004.81 1004.40 1004.02 1004.83 1004.64 1003.91 1003.77 1003.74 1004.05 1004.33 1005.07 1005.57 1006.02 1006.62 1007.04 1007.77 1008.83 1009.96 1010.92 1011.59
1020.97 1020.77 1020.55 1020.32 1020.05 1019.84 1019.63 1019.35 1019.07 1018.79 1018.57 1018.34 1018.16 1017.96 1017.77 1017.61 1017.17 1015.80 1015.37 1014.47 1015.10 1014.56 1012.14 1008.72 1005.90 1005.34 1005.75 1006.01 1005.96 1005.78 1005.74 1005.76 1005.59 1005.28 1005.04 1004.75 1004.67 1005.41 1005.44 1004.67 1004.10 1004.23 1004.77 1005.55 1006.10 1006.31 1006.91 1007.28 1007.63 1008.53 1009.39 1010.48 1011.59 1011.92
1020.70 1020.48 1020.26 1020.09 1019.82 1019.63 1019.38 1019.11 1018.85 1018.56 1018.31 1018.08 1017.87 1017.64 1017.40 1017.19 1016.89 1015.59 1014.01 1014.41 1014.93 1013.73 1011.75 1009.28 1006.46 1005.65 1005.89 1005.74 1005.64 1005.48 1005.36 1005.39 1005.56 1005.48 1004.92 1004.91 1005.41 1005.58 1005.39 1005.08 1004.85 1005.20 1005.62 1006.23 1006.83 1006.89 1007.12 1007.55 1008.23 1009.17 1010.08 1011.02 1011.73 1012.09
1020.46 1020.25 1019.96 1019.77 1019.65 1019.47 1019.22 1018.94 1018.65 1018.36 1018.05 1017.81 1017.52 1017.23 1016.86 1016.03 1014.51 1014.10 1014.45 1014.54 1014.07 1013.74 1011.53 1008.64 1006.58 1005.23 1005.80 1005.70 1005.29 1005.27 1005.64 1005.00 1004.77 1005.10 1005.03 1005.06 1004.91 1004.88 1004.94 1005.43 1005.52 1006.09 1006.51 1006.72 1007.05 1007.16 1007.51 1007.71 1008.67 1009.60 1010.40 1010.99 1011.44 1011.77
1020.23 1020.08 1019.85 1019.70 1019.54 1019.36 1019.11 1018.81 1018.44 1018.11 1017.77 1017.54 1017.17 1015.64 1013.95 1013.67 1014.12 1014.33 1014.71 1013.99 1013.26 1012.11 1011.44 1009.04 1007.03 1005.58 1005.45 1005.38 1005.14 1005.54 1005.32 1005.16 1004.38 1004.36 1004.68 1004.80 1004.83 1004.84 1005.16 1005.72 1006.33 1006.62 1006.79 1007.09 1007.19 1007.38 1007.83 1008.11 1008.78 1009.60 1010.34 1010.96 1011.26 1011.51
1020.02 1019.91 1019.79 1019.65 1019.45 1019.28 1019.03 1018.69 1018.34 1018.00 1016.97 1016.64 1015.44 1014.20 1013.45 1013.75 1013.48 1012.64 1011.83 1011.26 1010.45 1009.68 1008.88 1007.87 1007.26 1005.89 1005.42 1005.31 1005.24 1005.44 1005.34 1004.95 1004.63 1004.66 1004.87 1004.47 1004.49 1004.95 1005.81 1006.41 1006.80 1007.02 1007.08 1007.05 1007.18 1007.53 1007.80 1008.35 1008.80 1009.27 1010.00 1010.74 1011.35 1011.64
1019.77 1019.68 1019.58 1019.50 1019.40 1019.21 1018.95 1018.66 1018.36 1017.78 1016.84 1017.24 1017.12 1014.96 1013.24 1012.43 1011.90 1011.35 1010.19 1009.35 1008.57 1007.77 1007.02 1006.78 1006.51 1006.32 1005.90 1006.13 1005.87 1005.99 1005.89 1005.69 1005.28 1005.40 1005.36 1005.02 1006.20 1006.41 1006.60 1006.84 1007.09 1007.17 1007.16 1006.95 1007.00 1007.35 1007.82 1008.28 1008.86 1009.26 1009.80 1010.46 1011.12 1011.61
1019.48 1019.40 1019.34 1019.28 1019.19 1019.08 1018.90 1018.63 1018.38 1018.16 1017.32 1015.55 1015.69 1013.92 1012.21 1011.58 1011.24 1010.17 1008.72 1007.64 1007.05 1006.43 1007.03 1006.90 1006.88 1006.56 1007.03 1007.17 1006.72 1006.78 1006.83 1006.59 1006.45 1005.95 1005.53 1005.88 1006.90 1007.21 1007.31 1007.30 1007.19 1007.20 1007.28 1007.12 1007.20 1007.60 1007.99 1008.63 1009.33 1009.80 1010.16 1010.55 1010.89 1011.44
1019.13 1019.10 1019.06 1019.04 1018.98 1018.91 1018.79 1018.58 1018.32 1017.92 1017.46 1015.49 1014.24 1013.44 1011.80 1010.33 1009.19 1008.40 1007.65 1007.37 1007.18 1007.13 1006.89 1006.96 1007.09 1007.19 1007.23 1007.22 1007.06 1007.54 1007.46 1007.43 1006.73 1006.19 1006.02 1006.97 1007.49 1007.82 1007.90 1007.84 1007.60 1007.54 1007.60 1007.57 1007.73 1008.02 1008.58 1009.22 1009.80 1010.29 1010.58 1010.70 1010.87 1011.18
1018.82 1018.74 1018.70 1018.66 1018.65 1018.68 1018.62 1018.45 1018.24 1017.76 1016.15 1014.55 1013.52 1012.13 1010.25 1008.85 1008.17 1007.69 1008.07 1007.94 1007.65 1007.45 1007.56 1007.84 1008.17 1007.80 1007.59 1007.71 1007.66 1007.70 1007.80 1007.09 1005.96 1005.95 1007.14 1007.91 1008.24 1008.45 1008.46 1008.23 1008.06 1008.04 1008.10 1008.16 1008.26 1008.63 1009.03 1009.45 1009.86 1010.24 1010.50 1010.72 1010.80 1010.97
1018.56 1018.34 1017.74 1017.80 1018.07 1018.40 1018.50 1018.30 1017.95 1016.98 1015.45 1013.99 1012.80 1011.20 1009.59 1008.80 1008.43 1007.67 1007.44 1007.60 1008.07 1007.95 1008.22 1008.67 1008.83 1008.49 1008.25 1008.12 1007.66 1007.26 1006.89 1006.47 1006.91 1007.25 1007.73 1008.31 1008.55 1008.82 1008.80 1008.87 1008.93 1008.91 1008.60 1008.63 1008.71 1008.95 1009.16 1009.35 1009.55 1009.85 1010.10 1010.40 1010.61 1010.75
1018.51 1017.72 1017.40 1017.33 1017.86 1018.31 1018.53 1018.38 1017.68 1016.45 1015.13 1013.58 1011.55 1010.54 1010.12 1009.66 1008.98 1009.09 1008.78 1008.63 1008.76 1008.55 1008.99 1009.11 1008.77 1008.07 1007.79 1007.81 1007.60 1007.44 1007.19 1007.32 1007.23 1007.22 1007.84 1008.63 1008.97 1008.98 1008.97 1009.10 1009.24 1009.30 1009.31 1009.23 1009.24 1009.46 1009.51 1009.50 1009.72 1009.71 1009.79 1009.95 1010.27 1010.39
1017.72 1017.34 1017.49 1017.60 1017.99 1018.36 1018.32 1018.08 1017.58 1016.57 1014.43 1012.59 1011.52 1010.43 1010.12 1010.21 1009.95 1009.67 1009.76 1009.46 1009.35 1009.56 1009.52 1009.55 1009.42 1009.01 1008.10 1007.76 1007.88 1007.71 1007.65 1008.27 1007.71 1007.73 1007.94 1008.36 1008.52 1008.74 1008.99 1009.08 1009.18 1009.49 1009.95 1009.90 1010.30 1010.59 1009.73 1009.16 1009.27 1009.27 1009.38 1009.51 1009.43 1009.78
1017.62 1017.85 1017.87 1017.82 1017.86 1017.94 1017.78 1017.75 1017.43 1015.95 1013.53 1011.76 1011.06 1010.68 1010.47 1010.31 1010.22 1010.17 1010.01 1010.12 1010.02 1010.17 1009.76 1009.24 1008.99 1008.42 1008.52 1008.51 1008.28 1008.97 1008.84 1008.43 1008.46 1008.42 1008.26 1008.30 1008.48 1008.62 1008.74 1008.83 1009.04 1009.14 1009.38 1009.93 1010.34 1009.70 1009.22 1009.32 1009.60 1008.89 1008.99 1009.14 1009.15 1009.19
1017.84 1017.81 1017.82 1017.92 1018.08 1017.49 1016.81 1017.01 1016.63 1014.98 1012.82 1012.09 1011.10 1011.03 1011.41 1010.61 1010.36 1010.42 1010.37 1010.02 1010.05 1010.18 1009.88 1009.38 1008.93 1008.63 1008.74 1009.04 1009.24 1009.33 1009.20 1009.01 1009.02 1008.74 1008.49 1008.43 1008.52 1008.54 1008.44 1008.55 1008.68 1008.87 1009.18 1009.48 1009.56 1010.09 1009.56 1008.99 1008.82 1009.10 1009.26 1009.95 1009.01 1008.77
1017.76 1017.35 1017.41 1017.71 1017.77 1017.23 1016.38 1015.28 1014.86 1013.39 1012.81 1012.25 1011.47 1011.33 1010.96 1010.59 1010.40 1010.26 1010.36 1010.53 1010.41 1009.99 1009.32 1008.84 1008.70 1008.43 1009.27 1009.77 1009.76 1009.78 1009.80 1009.73 1009.63 1009.44 1009.18 1008.94 1008.90 1008.80 1008.52 1008.20 1007.93 1007.89 1008.08 1008.48 1008.84 1008.66 1008.73 1008.67 1008.70 1008.37 1008.25 1007.44 1007.69 1007.45
1017.17 1017.17 1017.37 1017.57 1017.34 1016.85 1016.06 1014.62 1013.65 1012.86 1012.31 1011.47 1011.33 1010.86 1010.75 1010.77 1010.37 1010.08 1009.88 1009.87 1009.84 1009.59 1009.54 1009.45 1009.74 1009.90 1009.86 1009.95 1010.02 1010.10 1010.12 1010.10 1009.93 1009.69 1009.36 1008.98 1008.67 1008.18 1007.88 1007.49 1007.07 1006.83 1006.88 1007.22 1007.40 1007.41 1007.66 1007.63 1007.86 1008.27 1008.68 1008.71 1008.81 1007.77
1017.16 1017.00 1017.07 1017.18 1016.89 1016.21 1015.04 1013.57 1012.98 1012.41 1011.92 1011.54 1011.17 1010.97 1010.88 1010.90 1010.88 1010.64 1010.08 1009.70 1010.03 1010.09 1010.12 1010.33 1010.60 1010.74 1010.75 1010.60 1010.37 1010.08 1009.84 1009.81 1009.57 1009.21 1008.74 1008.34 1008.11 1008.00 1007.80 1007.31 1006.73 1006.21 1006.11 1006.41 1006.32 1006.58 1006.53 1006.64 1007.39 1007.39 1007.50 1007.53 1007.80 1007.28
1017.37 1017.16 1016.93 1016.67 1016.41 1015.14 1013.97 1012.99 1012.39 1012.07 1011.61 1011.40 1011.17 1011.06 1011.08 1011.12 1011.17 1010.70 1010.51 1010.47 1010.66 1010.51 1010.58 1011.01 1010.90 1010.68 1010.44 1010.28 1009.85 1009.51 1009.42 1009.58 1009.06 1008.64 1008.57 1008.47 1007.80 1007.27 1007.26 1006.76 1005.82 1005.49 1005.35 1005.36 1005.32 1005.26 1005.26 1005.36 1005.87 1006.26 1006.71 1006.65 1006.87 1006.77
1017.18 1016.89 1016.69 1016.43 1015.81 1014.75 1013.55 1012.70 1012.34 1011.89 1011.43 1011.22 1011.03 1010.98 1010.96 1011.01 1011.05 1011.02 1010.71 1010.85 1010.75 1010.69 1010.89 1010.96 1010.84 1010.56 1010.38 1010.11 1009.78 1009.44 1009.22 1009.30 1008.99 1008.79 1008.25 1007.76 1007.29 1007.15 1006.54 1006.31 1005.58 1005.23 1004.85 1004.86 1004.58 1004.69 1004.67 1004.70 1005.00 1005.02 1005.16 1005.41 1005.30 1005.33
1016.69 1016.44 1016.39 1015.88 1014.88 1014.13 1013.51 1012.83 1012.75 1012.26 1011.38 1011.07 1010.89 1010.94 1010.54 1010.86 1011.08 1011.31 1011.31 1011.01 1010.95 1010.79 1010.68 1010.74 1010.74 1010.56 1011.29 1010.37 1009.53 1008.90 1008.43 1008.17 1008.11 1008.11 1007.48 1007.08 1006.98 1006.86 1006.44 1006.14 1005.82 1005.43 1005.55 1005.43 1005.04 1004.38 1004.14 1003.95 1004.03 1004.21 1004.16 1004.14 1004.29 1004.56
1015.45 1015.25 1015.48 1015.20 1014.28 1013.69 1013.16 1012.93 1012.42 1011.53 1011.09 1010.84 1010.60 1010.65 1010.93 1011.14 1011.64 1012.29 1011.89 1011.06 1011.07 1011.07 1011.03 1011.12 1011.50 1011.25 1010.75 1009.93 1009.29 1009.03 1008.87 1008.47 1008.38 1007.70 1007.12 1006.68 1006.31 1006.48 1006.79 1006.61 1006.11 1005.67 1005.46 1005.18 1004.93 1004.90 1004.99 1003.99 1003.19 1003.59 1003.49 1003.24 1003.40 1003.95
1014.48 1014.45 1014.48 1014.14 1013.74 1013.52 1013.16 1012.85 1012.21 1011.72 1011.32 1010.65 1010.72 1011.56 1012.14 1012.67 1013.55 1013.25 1012.38 1012.26 1011.66 1011.62 1011.87 1011.76 1011.43 1011.86 1011.04 1010.11 1009.47 1009.14 1008.51 1008.05 1008.35 1008.11 1008.08 1007.47 1007.30 1007.02 1007.57 1007.64 1007.71 1006.33 1004.80 1004.78 1005.01 1004.74 1004.85 1004.80 1004.65 1003.28 1002.97 1003.03 1003.23 1003.08
1014.11 1014.01 1013.91 1013.69 1013.60 1013.44 1013.36 1013.13 1012.35 1011.61 1011.08 1011.07 1011.86 1012.79 1013.40 1013.79 1013.97 1013.82 1013.53 1013.16 1012.68 1012.14 1011.87 1011.88 1011.95 1011.77 1011.32 1010.77 1010.26 1010.12 1010.17 1010.05 1009.73 1009.33 1009.02 1008.96 1008.52 1008.14 1007.84 1006.63 1006.82 1005.26 1004.02 1003.96 1004.78 1004.79 1004.28 1003.94 1003.92 1004.05 1003.14 1002.99 1002.73 1002.25
1013.42 1013.26 1013.37 1013.19 1013.04 1012.66 1012.06 1011.68 1011.31 1010.86 1010.73 1011.13 1011.52 1013.01 1013.97 1014.56 1014.62 1014.24 1014.14 1013.89 1013.60 1013.42 1013.07 1013.20 1013.38 1012.97 1012.45 1011.96 1011.31 1010.53 1010.12 1010.16 1010.44 1010.86 1010.76 1009.97 1009.64 1009.39 1008.86 1008.42 1007.44 1006.33 1005.15 1004.69 1004.27 1004.15 1004.02 1003.84 1002.77 1002.74 1002.85 1002.39 1001.89 1001.57
1013.17 1012.82 1012.55 1012.41 1012.04 1011.58 1011.15 1010.92 1010.65 1010.82 1011.04 1011.42 1011.90 1012.49 1013.98 1014.90 1015.03 1015.65 1015.63 1015.27 1015.14 1014.77 1014.38 1014.16 1013.87 1013.72 1013.25 1012.87 1012.04 1011.25 1011.17 1011.38 1011.53 1011.63 1011.89 1011.25 1010.86 1010.45 1009.66 1008.63 1007.47 1006.41 1005.61 1005.09 1004.77 1004.35 1004.44 1004.33 1004.02 1003.18 1002.88 1003.30 1002.74 1001.78
1012.85 1012.51 1012.33 1011.97 1011.67 1011.11 1010.61 1011.00 1011.61 1012.35 1013.09 1013.51 1013.85 1014.10 1014.95 1015.34 1016.31 1016.86 1016.83 1016.37 1016.16 1016.00 1015.80 1015.11 1014.30 1013.91 1013.65 1013.07 1012.75 1012.30 1012.28 1013.26 1013.40 1013.31 1013.32 1012.79 1012.42 1012.28 1011.59 1010.89 1009.77 1008.40 1007.08 1006.18 1005.71 1005.58 1004.92 1004.64 1004.61 1004.01 1004.23 1003.99 1003.98 1003.90
1012.27 1012.04 1012.11 1011.81 1011.59 1011.24 1011.20 1011.74 1012.02 1013.70 1014.65 1015.09 1015.78 1016.05 1016.26 1016.82 1017.51 1017.82 1017.62 1017.22 1016.98 1016.34 1015.06 1014.46 1014.04 1013.85 1013.84 1013.89 1013.72 1013.24 1012.71 1012.81 1013.27 1013.62 1014.07 1014.11 1013.97 1013.59 1012.81 1012.39 1011.21 1009.85 1008.33 1007.80 1007.59 1006.93 1006.47 1006.37 1006.38 1005.98 1005.34 1005.06 1004.73 1004.84
Wind_Speed
5 5 5 5 5 6 7 8 9 10 11 12 13 13 13 14 16 10 9 3 5 7 12 14 11 10 13 9 5 10 7 5 4 4 7 9 8 10 4 7 10 10 6 8 11 13 9 12 4 4 8 10 10 8
7 7 7 7 7 8 8 8 9 9 10 12 12 12 11 12 14 13 8 10 7 6 11 16 15 9 8 3 9 7 6 7 7 4 2 4 8 4 6 9 10 8 5 6 5 6 7 9 10 7 8 10 6 5
8 7 8 8 8 9 10 8 9 10 10 11 12 12 11 11 11 8 8 9 10 9 11 13 11 11 8 7 7 7 6 9 4 6 6 5 5 7 8 5 6 10 6 5 1 7 6 8 8 8 5 10 9 7
9 9 9 9 10 9 10 9 10 10 11 11 11 11 11 11 12 10 7 9 8 8 7 8 7 5 5 3 5 8 8 2 5 1 6 6 7 7 8 7 5 5 3 3 7 9 6 6 6 7 8 8 11 7
10 10 11 9 9 10 11 11 11 11 11 11 10 10 11 12 13 11 9 9 3 6 7 10 12 8 7 6 4 4 6 6 5 5 5 7 7 8 3 9 7 6 4 6 3 8 3 3 9 7 10 6 5 4
10 10 11 12 10 10 11 11 11 10 10 10 9 9 10 11 13 8 4 4 9 7 5 6 1 2 3 5 5 3 6 3 5 6 5 7 1 1 4 9 12 9 3 8 5 5 7 4 1 8 8 7 6 4
10 12 11 12 12 10 10 10 10 9 10 9 9 9 10 9 7 5 6 4 9 6 5 5 5 6 5 5 6 6 6 4 4 6 6 8 1 4 6 10 7 1 6 6 5 1 2 0 5 6 7 9 4 5
10 12 10 12 10 10 10 10 10 10 10 10 10 11 12 11 12 8 2 13 5 5 5 5 7 4 7 6 6 4 4 5 4 5 4 5 5 3 4 9 5 8 6 4 5 4 4 6 7 6 7 8 7 6
9 11 10 7 9 9 10 11 11 11 10 11 12 13 6 6 5 4 5 6 4 4 6 5 9 4 5 7 5 4 3 5 5 6 7 5 7 7 6 7 1 3 1 2 4 6 4 6 9 8 7 8 8 7
9 8 10 8 8 10 10 10 11 12 12 11 7 6 4 4 9 8 3 4 6 6 5 6 9 7 4 6 3 3 5 5 5 8 5 3 8 9 8 6 3 2 1 4 4 6 4 4 7 9 8 6 6 6
9 8 8 9 9 10 10 11 11 13 11 5 5 2 3 6 4 5 4 6 7 6 6 7 11 10 3 5 5 5 2 3 4 1 4 5 5 7 9 6 3 2 5 6 6 6 6 6 6 8 8 7 6 6
9 8 8 9 9 9 10 11 11 6 4 7 6 7 4 5 4 4 5 5 6 6 3 5 6 8 1 3 4 3 3 3 3 4 3 5 8 8 6 5 1 2 5 8 8 7 5 4 5 3 4 6 8 7
9 9 8 8 8 9 9 10 11 10 14 8 5 4 2 4 2 6 8 6 7 6 6 4 4 4 4 4 4 2 3 1 5 3 5 4 9 6 3 1 3 1 5 5 3 3 1 4 1 3 4 5 6 8
9 9 8 8 8 8 8 10 12 9 4 4 3 3 5 6 6 9 5 3 2 4 2 3 1 6 6 6 1 1 2 2 4 7 2 8 7 6 4 2 2 2 2 4 4 2 3 3 4 3 4 6 6 7
9 9 9 9 10 8 7 9 10 4 5 4 4 5 8 8 6 5 4 1 1 2 2 3 2 3 3 2 2 2 3 6 6 1 7 7 7 6 5 5 4 2 2 3 2 4 5 5 5 6 5 6 7 7
6 10 13 12 7 6 3 8 3 4 5 4 5 8 6 7 8 6 4 4 2 3 3 1 1 2 2 3 4 4 5 2 6 4 6 7 6 5 5 6 6 9 7 4 3 1 3 5 7 7 6 7 9 9
3 4 7 7 10 6 4 2 2 5 4 4 6 7 6 4 3 4 3 4 1 3 1 3 3 2 2 3 2 3 3 2 4 5 7 7 5 3 3 3 6 7 6 6 7 3 3 4 5 4 8 7 10 9
5 5 6 9 8 3 1 1 2 1 6 8 6 3 3 2 4 4 1 2 4 4 0 2 3 4 3 2 1 2 5 7 6 5 3 4 3 1 2 5 4 6 5 4 7 13 11 5 9 10 7 10 10 11
4 6 9 10 4 2 3 3 1 4 9 6 6 1 3 1 3 1 2 3 1 1 5 3 3 4 1 3 3 3 6 4 4 5 5 6 6 5 6 6 8 7 5 4 6 9 5 4 7 7 8 5 5 8
6 8 9 6 6 3 5 1 3 5 4 3 4 4 6 2 2 1 5 5 3 4 5 5 6 6 6 6 5 4 7 9 8 8 8 8 8 9 6 6 5 4 5 1 1 5 13 9 6 2 4 11 4 6
1 3 6 7 3 3 3 3 5 4 1 3 4 6 3 3 6 6 5 5 4 6 9 6 7 4 9 7 5 6 6 6 6 7 8 8 8 9 9 10 10 8 8 8 8 9 11 9 6 6 7 7 8 8
2 2 2 1 2 2 3 4 3 2 3 3 3 4 2 1 3 1 2 5 5 6 5 4 8 9 9 9 9 9 9 9 9 8 10 10 10 8 8 10 9 9 6 5 9 8 6 6 7 2 2 2 15 8
3 2 2 2 2 2 5 4 4 3 3 2 2 2 1 1 2 3 3 1 3 4 5 6 7 7 8 9 9 10 9 9 8 9 9 7 4 4 7 10 11 7 7 7 8 5 9 8 8 7 7 5 10 11
2 2 3 3 3 4 3 4 3 3 3 2 3 2 3 2 0 3 1 2 4 3 2 1 5 5 5 6 6 5 5 5 9 8 4 9 9 7 5 10 10 8 7 7 9 7 9 7 5 8 7 7 13 13
1 1 3 3 4 5 2 2 1 2 3 3 3 2 2 5 2 2 3 3 3 2 3 3 5 5 6 5 5 5 6 3 5 5 11 6 7 7 7 5 9 9 7 8 7 8 11 7 8 11 10 9 14 8
2 3 3 2 2 1 2 2 2 4 2 2 3 2 3 1 5 3 2 3 3 1 3 5 5 6 6 10 7 6 5 4 6 7 8 9 4 8 9 10 8 7 7 6 11 11 12 12 9 15 17 17 7 9
1 3 3 5 4 4 3 1 5 4 3 2 1 2 3 2 4 4 4 4 4 4 5 6 7 9 8 5 3 8 7 8 12 11 12 11 11 5 2 7 7 4 5 14 13 14 17 20 10 7 12 11 8 2
1 3 2 4 1 1 1 2 3 4 4 3 2 5 5 5 3 3 4 9 8 6 6 2 3 5 7 10 10 10 11 9 5 9 10 12 12 10 10 9 17 17 9 6 6 6 7 15 21 12 14 13 10 11
2 3 4 6 1 3 2 2 2 4 2 5 4 3 3 4 3 1 4 6 3 7 9 10 13 12 8 9 10 9 5 5 11 17 16 11 12 13 12 12 12 16 8 5 4 8 8 6 12 16 13 9 12 12
2 2 3 5 3 4 4 4 2 3 3 4 3 10 8 8 9 9 10 9 9 10 11 8 5 7 10 12 12 13 12 12 12 10 10 12 11 9 8 10 13 14 15 10 6 6 11 12 7 8 12 10 10 9
2 3 3 2 2 3 3 2 2 3 2 5 9 5 6 6 8 11 11 10 10 10 11 12 11 10 11 11 10 12 11 11 17 19 16 13 13 15 16 16 16 15 14 15 15 10 11 4 9 8 3 16 29 12
3 2 2 2 1 4 2 5 5 8 9 11 11 8 7 5 6 6 8 10 9 8 8 6 5 5 6 9 12 11 11 12 13 15 21 15 14 16 15 15 15 15 16 16 15 13 11 11 6 9 7 11 18 22
3 3 3 4 3 2 5 5 4 6 7 6 6 5 6 3 4 3 4 4 3 5 8 8 9 11 13 14 14 12 13 14 14 21 19 19 14 11 13 15 16 17 18 13 14 15 15 18 15 15 14 13 15 17
Wind_Direction
319 315 311 311 308 302 302 309 311 311 317 321 325 327 333 336 340 342 295 325 326 310 300 318 334 351 342 1 80 278 273 220 273 242 273 291 296 298 301 286 296 289 270 264 248 268 251 99 125 324 103 109 98 84
340 335 323 314 309 303 300 301 303 307 311 313 320 321 327 333 338 337 289 339 331 272 288 311 295 284 277 285 305 322 3 320 19 318 353 308 294 311 290 285 287 231 300 344 31 50 90 64 89 126 124 118 105 104
339 338 334 324 314 311 300 301 305 303 307 310 314 317 320 323 331 341 302 312 309 271 266 244 253 197 253 273 335 306 332 7 22 18 322 311 323 329 292 274 264 197 193 245 201 128 142 113 91 94 65 102 92 83
336 338 331 323 319 312 307 309 303 299 301 305 309 312 313 316 316 322 300 307 298 304 272 209 133 204 250 297 321 332 313 297 283 315 276 271 272 264 264 285 299 63 98 244 269 153 146 167 143 123 94 94 92 87
330 330 329 319 314 312 312 310 302 299 297 299 302 308 310 312 312 294 267 265 296 314 327 316 315 178 192 215 263 273 275 261 252 237 233 252 265 278 265 284 284 271 250 234 345 48 100 36 158 149 131 136 121 110
329 324 320 316 313 310 313 310 305 299 297 297 298 303 306 311 323 286 205 118 19 349 281 278 149 149 253 109 239 250 269 244 255 267 254 261 120 14 284 256 230 231 0 48 36 67 173 71 115 141 137 148 136 160
320 319 312 309 309 306 309 310 310 307 301 298 298 297 297 304 303 284 347 2 356 306 258 271 249 129 201 205 228 230 194 234 253 246 247 277 271 164 259 276 338 53 93 67 352 95 76 257 144 128 129 121 122 130
308 313 304 304 302 302 308 313 311 306 303 301 297 293 293 287 271 269 214 219 241 267 276 275 267 174 177 211 235 201 243 198 208 252 254 245 150 223 261 258 270 59 79 119 264 182 258 156 122 142 139 141 187 172
311 321 300 306 319 310 310 310 309 303 302 299 297 290 281 211 231 77 106 145 225 292 306 254 264 99 168 227 235 153 244 247 201 212 243 243 226 221 209 230 128 96 308 272 223 234 237 181 146 167 186 183 212 197
311 321 327 319 324 321 318 314 310 303 297 302 276 209 202 40 121 133 137 193 198 202 226 257 293 282 180 203 205 251 171 247 224 209 220 251 252 279 134 125 82 17 252 243 257 226 209 222 178 178 197 221 229 225
299 304 308 322 328 326 325 324 317 323 270 218 237 33 86 138 230 217 232 219 180 208 205 229 244 272 151 266 220 206 342 263 236 164 219 243 236 131 120 125 128 231 267 258 234 237 214 210 237 198 190 195 224 234
286 295 296 300 308 319 327 331 325 286 336 319 291 270 261 229 225 231 223 216 196 223 161 215 216 231 54 329 274 22 248 274 270 184 236 253 98 107 119 115 168 213 276 266 239 207 213 204 216 230 209 203 199 230
281 282 288 290 300 307 323 330 327 297 291 265 215 256 195 228 42 231 211 214 206 192 153 185 214 231 109 248 259 156 305 326 306 263 262 68 128 120 105 44 294 155 273 275 242 222 133 128 120 260 233 232 227 202
280 276 272 269 279 298 308 323 324 308 264 236 249 289 227 205 226 224 257 53 52 104 202 116 90 186 205 196 152 225 165 264 258 250 270 113 99 91 73 60 13 12 301 287 251 189 153 205 194 229 268 265 236 226
276 276 274 264 254 267 296 317 304 263 266 240 237 233 227 254 283 104 91 139 246 280 129 101 272 219 299 112 246 209 204 238 235 93 105 114 95 71 49 19 15 18 331 303 221 200 213 229 216 234 239 250 247 233
281 283 240 236 208 203 355 313 247 226 265 253 242 242 263 289 7 333 195 120 40 225 99 23 44 279 228 307 249 205 227 337 95 97 117 120 112 101 67 19 345 325 324 281 333 285 197 230 229 234 216 221 238 245
221 265 29 202 165 126 321 278 272 239 250 254 233 241 272 289 335 89 79 102 260 309 25 297 206 203 255 219 233 285 20 97 323 123 119 117 120 75 28 335 317 314 305 279 281 55 40 356 312 287 240 234 250 246
253 73 60 143 140 148 214 228 267 329 258 229 253 344 250 113 350 39 38 34 42 341 320 349 297 228 266 347 190 9 5 10 22 14 83 95 57 174 274 298 295 298 308 20 336 318 264 249 254 252 239 237 225 233
18 355 14 160 160 207 177 178 171 248 233 260 259 196 291 69 107 154 75 6 336 293 299 250 268 256 235 287 352 34 330 6 10 338 321 2 354 292 257 272 279 272 299 357 294 281 316 10 293 267 309 256 230 247
277 284 279 264 213 269 169 172 245 253 275 289 267 231 207 282 43 39 301 281 192 191 232 227 250 284 310 35 27 353 343 353 339 323 317 322 327 323 309 274 281 253 277 277 129 277 299 318 305 235 145 266 258 250
188 226 136 152 206 260 293 195 212 255 228 274 198 221 221 229 208 219 218 228 273 273 276 272 284 325 45 35 353 352 312 307 313 315 314 309 315 315 301 293 280 252 261 237 231 243 238 276 260 287 290 308 278 254
205 188 111 97 254 260 261 246 253 263 224 228 231 247 149 249 312 301 213 205 217 231 232 325 16 3 346 347 343 333 321 309 292 286 270 259 258 274 306 305 296 295 287 282 262 256 263 261 250 175 139 248 294 254
227 151 143 161 5 235 252 243 233 219 228 199 200 243 65 116 109 222 245 202 61 19 14 29 14 338 308 295 280 272 268 269 272 267 262 278 308 291 293 293 297 277 300 288 275 270 251 259 181 194 222 248 253 255
213 147 168 191 204 261 218 220 199 225 190 241 185 179 169 143 211 265 106 52 120 169 123 290 296 293 271 273 267 317 343 319 279 259 353 323 280 305 281 285 288 289 284 291 278 269 260 263 237 211 219 208 242 232
167 58 75 326 244 245 240 174 174 230 226 192 204 141 175 183 170 253 180 120 162 71 44 339 283 304 290 343 311 310 285 259 303 344 296 251 295 284 281 283 310 308 296 312 291 287 285 244 256 273 253 248 263 186
150 165 173 261 228 177 238 176 89 286 221 197 165 194 211 134 202 140 82 189 88 343 21 341 315 24 330 289 294 291 299 244 211 237 281 304 253 248 286 312 324 306 7 324 289 285 284 295 269 251 253 253 241 171
178 133 175 227 252 193 211 198 240 233 209 172 248 157 205 215 65 56 313 51 31 3 335 358 17 353 336 289 334 358 357 7 0 353 341 326 306 11 39 287 255 252 306 296 299 335 335 313 288 301 296 294 291 279
330 52 170 178 232 44 44 355 308 26 358 335 121 39 26 26 30 313 351 346 14 1 32 341 61 339 305 347 0 348 336 350 30 30 351 355 346 352 13 8 343 304 246 290 338 342 330 311 319 278 272 264 287 294
202 200 209 123 244 82 42 267 255 230 231 75 98 128 165 45 67 358 13 23 357 360 25 22 18 5 353 353 18 24 1 25 13 18 22 7 343 334 329 350 323 301 309 171 195 235 246 269 298 309 291 258 256 271
264 155 194 163 186 209 222 189 236 257 98 126 138 97 80 61 39 24 30 26 29 16 6 65 30 349 11 6 347 9 20 20 35 35 357 351 348 344 335 318 309 311 326 309 248 232 268 278 273 284 284 272 261 280
281 243 189 196 240 225 246 211 200 136 148 48 20 89 120 131 84 44 21 25 17 8 19 9 17 8 10 353 327 359 9 28 24 23 16 2 359 348 338 335 333 333 336 334 321 352 352 308 294 289 305 2 331 279
239 233 343 295 224 258 187 83 76 74 66 57 40 65 75 70 55 5 2 5 8 12 346 314 343 330 318 350 8 355 5 75 48 29 25 16 14 4 355 348 339 332 331 326 354 354 13 12 9 36 1 28 17 358
224 234 224 237 217 245 172 167 142 102 54 39 35 29 59 58 67 357 335 320 306 283 325 346 4 18 21 14 4 349 359 24 45 50 35 28 11 358 15 9 354 350 348 16 12 5 33 42 24 12 18 31 34 23